Weather History for CXRB - September, 2013

Change the Weather History Date:

Monday, September 9, 2013

  Actual Average Record
Temperature  
Mean Temperature 20 °F -  
Max Temperature 23 °F - - ()
Min Temperature 17 °F - - ()
Degree Days  
Heating Degree Days 45    
Moisture  
Dew Point 18 °F    
Average Humidity 88    
Maximum Humidity 95    
Minimum Humidity 78    
Precipitation  
Precipitation 0.00 in - - ()
Sea Level Pressure  
Sea Level Pressure 29.99 in    
Wind  
Wind Speed 12 mph ()    
Max Wind Speed 18 mph    
Max Gust Speed 22 mph    
T = Trace of Precipitation, MM = Missing Value Source: Averaged Metar Reports

Daily Weather History Graph

Daily Weather History Graph

Search for Another Location

Airport or City:

Trip Planner

Search our weather history database for the weather conditions in past years. The results will help you decide how hot, cold, wet, or windy it might be!

Date:

Astronomy

Sep. 09, 2013 Rise Set
Actual Time 4:46 AM MDT 7:44 PM MDT
Civil Twilight 3:09 AM MDT 9:18 PM MDT
Nautical Twilight Sun does not set Sun does not set
Astronomical Twilight Sun does not set Sun does not set
Moon 2:53 PM MDT (9/9) 4:08 PM MDT (9/9)
Length of Visible Light 18h 08m
Length of Day
14h 57m
Waxing Crescent, 19% of the Moon is Illuminated
Sep 9
Waxing Crescent
Sep 12
First Quarter
Sep 19
Full
Sep 26
Last Quarter
Oct 4
New

Hourly Weather History & Observations

Time (MDT) Temp. Windchill Dew Point Humidity Pressure Visibility Wind Dir Wind Speed Gust Speed Precip Events Conditions
12:00 AM 20.8 °F 7.9 °F 17.4 °F 87% 29.92 in - North 13.8 mph 21.9 mph N/A   Unknown
1:00 AM 20.5 °F 6.4 °F 17.4 °F 88% 29.93 in - North 16.1 mph - N/A   Unknown
2:00 AM 22.1 °F 7.6 °F 19.0 °F 88% 29.94 in - NNE 18.4 mph - N/A   Unknown
3:00 AM 20.1 °F 6.4 °F 17.2 °F 89% 29.95 in - NNE 15.0 mph - N/A   Unknown
4:00 AM 17.6 °F 2.7 °F 14.9 °F 89% 29.97 in - NNE 16.1 mph - N/A   Unknown
5:00 AM 21.2 °F 7.8 °F 17.8 °F 87% 29.97 in - NNE 15.0 mph - N/A   Unknown
6:00 AM 20 °F - 17 °F 80% 29.97 in - North 16.1 mph - -  
6:00 AM 20.3 °F 6.1 °F 16.5 °F 85% 29.97 in - North 16.1 mph - N/A   Unknown
7:00 AM 18.7 °F 6.3 °F 15.3 °F 87% 29.98 in - North 11.5 mph - N/A   Unknown
8:00 AM 19.2 °F 6.4 °F 16.2 °F 88% 29.99 in - North 12.7 mph - N/A   Unknown
9:00 AM 21.6 °F 12.1 °F 17.6 °F 85% 29.99 in - NNW 8.1 mph - N/A   Unknown
10:00 AM 21.9 °F 7.3 °F 18.1 °F 85% 29.99 in - North 18.4 mph - N/A   Unknown
11:00 AM 22.8 °F 9.9 °F 18.3 °F 83% 29.99 in - North 15.0 mph - N/A   Unknown
12:00 PM 24 °F - 20 °F 78% 29.99 in - NNW 13.8 mph - -  
12:00 PM 23.5 °F 11.3 °F 19.9 °F 86% 29.99 in - NNW 13.8 mph 20.7 mph N/A   Unknown
1:00 PM 22.3 °F 10.2 °F 18.1 °F 84% 30.00 in - NNW 12.7 mph - N/A   Unknown
2:00 PM 22.5 °F 12.4 °F 19.8 °F 89% 30.00 in - North 9.2 mph - N/A   Unknown
3:00 PM 22.6 °F 12.6 °F 19.6 °F 88% 30.01 in - NNW 9.2 mph - N/A   Unknown
4:00 PM 23.5 °F 14.5 °F 20.7 °F 89% 30.01 in - NNW 8.1 mph - N/A   Unknown
5:00 PM 23.2 °F 14.1 °F 20.1 °F 88% 30.01 in - North 8.1 mph - N/A   Unknown
6:00 PM 22 °F - 20 °F 88% 30.01 in - North 9.2 mph - -  
6:00 PM 22.5 °F 12.4 °F 19.9 °F 90% 30.01 in - North 9.2 mph - N/A   Unknown
7:00 PM 21.2 °F 10.1 °F 19.2 °F 92% 30.02 in - North 10.4 mph - N/A   Unknown
8:00 PM 18.9 °F 9.8 °F 17.6 °F 95% 30.01 in - North 6.9 mph - N/A   Unknown
9:00 PM 17.2 °F 8.9 °F 15.6 °F 93% 30.00 in - North 5.8 mph - N/A   Unknown
10:00 PM 18.0 °F 7.7 °F 16.3 °F 93% 30.00 in - NNW 8.1 mph - N/A   Unknown
11:00 PM 19.6 °F 9.7 °F 18.1 °F 94% 29.99 in - NNW 8.1 mph - N/A   Unknown